User: anonymous   Login
Location: Unspecified
(0.0000°N, 0.0000°E)
Time: 05:34:49
(UTC+00:00)
Language:

GOES 4 - Orbit

View from above orbital plane
View from above orbital plane
View from above satellite
View from above satellite

Ground track
Ground track

The orbit data is extracted from the following two-line orbital elements,

1 11964U 80074A   18266.77761858 +.00000071 +00000-0 +00000-0 0  9990
2 11964 013.5924 329.7552 0033010 024.3327 352.4697 00.99226871099422
Epoch (UTC): 23 September 2018 18:39:46
Eccentricity: 0.0033010
inclination: 13.5924°
perigee height: 35941 km
apogee height: 36222 km
right ascension of ascending node: 329.7552°
argument of perigee: 24.3327°
revolutions per day: 0.99226871
mean anomaly at epoch: 352.4697°
orbit number at epoch: 9942

The dashed part of the orbit path shows where the satellite is in the earth's shadow,  

DLR